Location: Caltech
(34.1382°N, 118.1253°W)
Time: 00:17:38
(UTC-07:00)

Gurwin Techsat 1B - Visible Passes

Search period start: 30 May 2017 00:00
Search period end: 09 June 2017 00:00
Orbit: 811 x 815 km, 98.6° (Epoch: 29 May)

Date Brightness Start Highest point End Pass type
(mag) Time Alt. Az. Time Alt. Az. Time Alt. Az.
30 May 10.4 01:51:11 10° NE 01:54:58 22° E 01:54:58 22° E visible
30 May 9.3 03:30:25 10° N 03:35:16 37° WNW 03:36:10 35° W visible
31 May 11.0 01:29:54 10° ENE 01:31:54 13° E 01:31:54 13° E visible
31 May 8.6 03:07:19 10° N 03:12:35 62° WNW 03:13:07 59° WSW visible
01 Jun 8.5 02:44:28 10° NNE 02:49:49 79° ESE 02:50:03 77° SE visible
01 Jun 10.7 04:27:28 10° NW 04:29:01 11° WNW 04:30:34 10° W visible
02 Jun 9.2 02:21:52 10° NNE 02:26:59 46° E 02:26:59 46° E visible
02 Jun 10.2 04:02:54 10° NNW 04:06:32 19° WNW 04:08:12 16° W visible
03 Jun 10.1 01:59:35 10° NE 02:03:55 27° E 02:03:55 27° E visible
03 Jun 9.6 03:39:20 10° N 03:43:56 31° WNW 03:45:08 28° W visible
04 Jun 10.7 01:37:52 10° NE 01:40:51 16° E 01:40:51 16° E visible
04 Jun 8.9 03:16:09 10° N 03:21:16 51° WNW 03:22:03 47° WSW visible
05 Jun 8.4 02:53:12 10° NNE 02:58:33 85° WNW 02:59:00 75° SSW visible
06 Jun 8.9 02:30:30 10° NNE 02:35:44 57° E 02:35:55 57° ESE visible
06 Jun 10.4 04:12:05 10° NNW 04:15:09 16° WNW 04:17:08 13° W visible
07 Jun 9.7 02:08:04 10° NNE 02:12:50 34° E 02:12:50 34° E visible
07 Jun 9.9 03:48:18 10° NNW 03:52:36 25° WNW 03:54:04 22° W visible
08 Jun 10.5 01:46:04 10° NE 01:49:47 20° E 01:49:47 20° E visible
08 Jun 9.2 03:25:00 10° N 03:29:58 41° WNW 03:30:59 37° W visible
